Regional Weather Roundup
Issued by NWS

Home | Current Version | Previous Version | Graphics & Text | Print | Product List | Glossary On
Versions: 1 2 3 4 5 6 7 8 9 10 11 12 13 14 15 16 17 18 19 20 21 22 23 24 25 26 27 28 29 30 31 32 33 34 35 36 37 38 39 40 41 42 43 44 45 46 47 48 49 50
000
ASUS43 KTOP 301608
RWRKS

WEATHER ROUNDUP FOR KANSAS
NATIONAL WEATHER SERVICE GOODLAND KS
1100 AM CDT WED JUL 30 2014

NOTE:  "FAIR" INDICATES FEW OR NO CLOUDS BELOW 12,000 FEET WITH NO
SIGNIFICANT WEATHER AND/OR OBSTRUCTIONS TO VISIBILITY.

KSZ001>006-013>018-027>032-041>047-301700-
NORTHWEST KANSAS

CITY           SKY/WX    TMP DP  RH WIND       PRES   REMARKS
GOODLAND       CLOUDY    63  60  90 NE14      30.26R
HAYS           CLOUDY    64  57  77 NE13      30.18R
HILL CITY      CLOUDY    68  58  70 E9        30.20R
RUSSELL        LGT RAIN  63  60  90 NE9       30.16R
$$

KSZ061>065-074>080-084>089-301700-
SOUTHWEST KANSAS

CITY           SKY/WX    TMP DP  RH WIND       PRES   REMARKS
DODGE CITY     LGT RAIN  64  62  93 NE17      30.12R FOG
ELKHART          N/A     65  61  87 N13         N/A
GARDEN CITY    LGT RAIN  62  61  96 NE18G28   30.14R
GREAT BEND     CLOUDY    63  57  82 E12       30.15R
LIBERAL        CLOUDY    66  63  88 N13       30.07R
PRATT          RAIN      64  64 100 E9        30.12R
$$

KSZ066>073-081>083-090>101-301700-
SOUTHEAST KANSAS

CITY           SKY/WX    TMP DP  RH WIND       PRES   REMARKS
CHANUTE        CLOUDY    71  63  75 VRB7      30.12R
COFFEYVILLE    CLOUDY    74  65  73 E7        30.09R
HUTCHINSON     LGT RAIN  67  62  84 E12       30.13R
MEDICINE LODGE   N/A     65  65 100 E8        30.08R
NEWTON         CLOUDY    64  57  77 E6        30.16R
PARSONS        CLOUDY    73  64  73 CALM      30.12R
WICHITA INTL   CLOUDY    71  62  73 SE8       30.11R
WICHITA JABRA  CLOUDY    71  62  73 E7        30.12R
WICHITA MCCONL CLOUDY    70  65  83 E7        30.12R
WINFIELD       RAIN      68  67  96 E6        30.12S FOG
$$

KSZ007>012-019>026-033>040-048>060-102>105-301700-
NORTHEAST KANSAS

CITY           SKY/WX    TMP DP  RH WIND       PRES   REMARKS
CONCORDIA      CLOUDY    67  64  90 NE6       30.17R
EMPORIA        LGT RAIN  66  64  93 NE7       30.14R FOG
LAWRENCE       CLOUDY    71  59  65 CALM      30.13R
MANHATTAN      CLOUDY    68  61  78 NE6       30.15R
MARYSVILLE     PTSUNNY   73  55  53 N5        30.16R
OLATHE IND     CLOUDY    72  60  66 NE5       30.13S
OLATHE EXE     CLOUDY    70  58  65 NE5       30.12R
SALINA         LGT RAIN  65  61  87 E8        30.15R
TOPEKA BILLARD CLOUDY    71  60  68 NE3       30.14R
TOPEKA FORBES  CLOUDY    70  59  68 NE5       30.14R
$$



USA.gov is the U.S. government's official web portal to all federal, state and local government web resources and services.